Location: Campillo
(40.8621°N, 4.2488°W)
Time: 13:47:18
(UTC+00:00)

Daily predictions for brighter satellites

Satellite Brightness Start Highest point End
(mag) Time Altitude Azimuth Time Altitude Azimuth Time Altitude Azimuth
CZ-4 R/B 4.0 19:51:24 10° SSW 19:54:35 22° W 19:57:44 10° NW
Cosmos 1486 Rocket 4.0 19:51:19 10° S 19:56:37 74° ESE 20:01:57 10° NNE
Cosmos 1553 Rocket 4.0 19:52:28 10° S 19:58:32 72° E 20:04:44 10° NNE
Cosmos 1862 4.2 19:56:42 10° NNW 20:00:38 54° W 20:04:33 10° S
X-37B 1.6 19:57:50 10° WNW 20:00:54 42° N 20:03:58 10° E
Cosmos 1437 Rocket 2.7 19:57:21 10° S 20:01:11 67° E 20:05:07 10° NNE
SL-08 ROCKET BODY 4.4 19:55:39 10° N 20:01:31 70° E 20:07:19 10° SSE
Cosmos 2084 4.1 20:00:21 10° S 20:03:58 30° ESE 20:07:40 10° NE
Resurs 01 Rocket 2.9 20:02:30 10° ESE 20:06:09 25° ENE 20:09:47 10° NNE
USA 186 2.0 20:06:16 10° S 20:08:44 49° W 20:11:05 10° NNW
USA 290 3.1 20:05:57 10° N 20:08:57 34° ENE 20:11:34 12° SE
Cosmos 1933 3.7 20:08:03 10° SSE 20:11:53 43° E 20:15:42 10° NNE
Cosmos 1417 Rocket 4.5 20:06:50 10° S 20:13:01 79° E 20:19:12 10° N
Cosmos 2278 Rocket 3.3 20:18:10 10° SSE 20:22:29 23° E 20:26:47 10° NE
Cosmos 1606 3.8 20:19:01 10° SSW 20:22:38 46° W 20:26:19 10° N
BREEZE-M DEB (TANK) 4.1 20:22:58 10° NW 20:24:29 14° NNW 20:25:44 10° NNE
ERS-2 3.9 20:22:11 10° N 20:25:31 35° WNW 20:28:50 10° SW
Cosmos 1782 3.6 20:22:14 11° SSE 20:25:35 32° E 20:29:11 10° NNE
GPS 2-04 Rocket1 3.7 20:22:41 10° SW 20:26:18 29° SSE 20:28:42 17° ESE
Cosmos 1844 Rocket 3.5 20:21:05 10° SW 20:26:31 54° WNW 20:32:00 10° NNE
IGS 5A 4.3 20:24:31 15° SE 20:27:26 34° ENE 20:31:12 10° N
Cosmos 1242 Rocket 2.5 20:24:34 10° S 20:28:05 61° E 20:31:36 10° NNE
Intercosmos 25 Rocket 3.9 20:27:05 10° N 20:32:41 72° W 20:36:20 10° S
BREEZE-M DEB (TANK) 3.6 20:23:18 10° WNW 20:33:15 72° NNE 20:35:39 18° ESE
Cosmos 1805 Rocket 3.7 20:30:30 10° N 20:34:51 77° W 20:39:12 10° S
SJ-6B 3.9 20:32:15 10° S 20:35:57 43° W 20:39:45 10° NNW
CZ-4C R/B 3.7 20:30:37 10° NNW 20:37:25 41° NE 20:43:47 15° ESE
IRIS 3.5 20:37:19 10° W 20:39:39 81° SSW 20:40:56 27° ESE
Cosmos 1633 Rocket 3.5 20:36:50 10° N 20:41:03 43° ENE 20:43:38 21° SE
ATLAS 5 CENTAUR R/B 2.4 20:41:11 10° NNW 20:46:58 81° NE 20:51:47 20° SE
Cosmos 1328 Rocket 3.8 20:44:41 16° SSE 20:47:59 49° E 20:52:15 10° NNE
Cosmos 1503 Rocket 4.3 20:42:57 10° SSW 20:48:05 68° WNW 20:53:17 10° NNE
Cosmos 1812 3.8 20:47:18 23° ESE 20:48:07 25° E 20:51:19 10° NNE
Cosmos 1777 Rocket 4.2 20:44:25 10° S 20:49:23 48° ESE 20:54:22 10° NNE
Meteor 1-25 Rocket 4.3 20:43:36 10° N 20:49:29 89° W 20:54:48 13° S
DELTA 2 R/B (1) 4.0 20:45:44 10° W 20:51:03 47° SSW 20:54:11 23° SE
Cosmos 1470 Rocket 4.4 20:49:13 10° N 20:53:19 34° ENE 20:55:00 25° ESE
ARIANE 5 R/B 3.8 20:52:22 21° E 20:53:56 26° ENE 20:57:32 10° NNE
Ariane Rocket 3.6 20:51:08 10° S 20:56:03 54° W 21:01:01 10° NNW
Resurs 1-3 4.3 20:53:24 10° S 20:57:37 51° W 21:01:55 10° NNW
SL-4 R/B 4.0 20:55:20 10° W 20:58:48 22° SW 21:01:34 14° S
Cosmos 1666 4.2 20:57:27 10° NNE 21:00:12 19° ENE 21:00:28 19° E
Cosmos 1833 Rocket 3.3 20:59:02 10° N 21:04:23 41° ENE 21:07:04 25° ESE
Cosmos 1437 2.2 21:05:01 56° SSE 21:05:29 77° E 21:08:20 10° NNE
Cosmos 1933 Rocket 4.5 21:03:41 10° NNE 21:07:32 30° ENE 21:08:26 28° E
Cosmos 1666 Rocket 3.7 21:05:06 10° NNW 21:09:29 72° W 21:12:10 23° S
Cosmos 1709 Rocket 4.0 21:05:35 10° N 21:11:42 84° W 21:16:16 19° S
CZ-2C R/B 3.6 21:12:42 10° NNE 21:17:13 86° WNW 21:20:46 17° SSW
USA 245 3.8 21:20:53 26° N 21:20:53 26° N 21:22:05 10° N
SJ 16-02 1.6 21:19:29 41° SE 21:20:23 48° ESE 21:24:40 10° NNE
JB-3 4.5 21:18:04 10° NNE 21:21:50 47° E 21:21:59 47° ESE
SPOT 1/Viking Rocket 3.5 21:23:33 33° SSE 21:26:01 87° ENE 21:31:14 10° NNW
USA 308 4.4 21:23:01 10° NW 21:26:50 30° NNE 21:28:43 21° ENE
Cosmos 1500 3.1 21:26:32 10° N 21:30:17 80° W 21:30:59 57° S
ATLAS 2AS CENTAUR R/B 4.1 21:26:25 10° NNW 21:32:47 30° NE 21:37:04 17° E
Iridium 4 Rocket 3.9 21:30:58 37° SSE 21:33:07 60° E 21:38:55 10° N
Terra 2.7 21:33:01 31° E 21:33:48 33° ENE 21:38:04 10° N
OE (NEXTSAT) 4.4 21:33:43 10° WNW 21:37:11 68° NNE 21:37:15 68° NNE
X-37B 1.4 21:34:29 10° WNW 21:36:59 46° WSW 21:36:59 46° WSW
SPOT 5 3.2 21:38:33 44° ESE 21:39:48 56° ENE 21:44:57 10° N
Resurs 01 Rocket 3.2 21:39:48 16° SSW 21:42:30 29° W 21:46:24 10° NW
Cosmos 2082 Rocket 2.8 21:39:00 10° NNW 21:44:22 44° ENE 21:45:50 37° E
Cosmos 2228 Rocket 3.4 21:45:35 48° E 21:45:35 48° E 21:49:42 10° NNE
Cosmos 158 Rocket 4.3 21:41:26 10° N 21:46:09 46° ENE 21:46:51 43° E
COSMOS 2406 3.1 21:45:19 10° NNW 21:51:00 84° WSW 21:52:38 49° SSE
Cosmos 1271 Rocket 2.7 21:54:21 88° WNW 21:54:21 88° WNW 21:58:21 10° N
Meteor 2-6 Rocket 4.4 21:54:18 27° SSW 21:57:13 66° WNW 22:02:43 10° N
Cosmos 1538 Rocket 4.0 21:52:36 10° NNW 21:57:58 82° WSW 21:59:07 56° S
Meteor 1-27 Rocket 3.8 21:58:45 52° SE 21:59:48 61° E 22:05:37 10° NNE
Spot 2 Rocket 3.9 22:02:17 41° SSW 22:03:40 55° W 22:08:38 10° NNW
Cosmos 2278 Rocket 3.0 22:00:42 10° SW 22:06:09 50° WNW 22:11:40 10° NNE
USA 305 3.2 22:03:13 10° NW 22:07:26 57° NE 22:07:27 57° NE
Milstar 3 3.9 21:57:25 10° WSW 22:09:32 40° S 22:10:46 38° SSE
ERS-1 Rocket 3.0 22:10:19 61° SSW 22:11:04 73° WSW 22:16:07 10° NNW
Cosmos 1943 Rocket 3.3 22:13:55 30° ENE 22:13:55 30° ENE 22:17:34 10° NE
Cosmos 1680 Rocket 4.0 22:09:20 10° N 22:14:29 46° ENE 22:14:52 45° E
Cosmos 2369 Rocket 4.2 22:17:09 15° ENE 22:17:09 15° ENE 22:18:39 10° ENE
Centaur D AC-29 4.1 13:47:07 10° SSW 22:16:34 42° S 22:20:13 36° SSE
Cosmos 1869 Rocket 3.7 22:12:14 10° N 22:16:04 65° NNE 22:16:04 65° NNE
CZ-4C R/B 3.4 22:18:58 10° NW 22:26:20 55° WSW 22:28:58 41° SSW
USA 306 3.4 22:22:29 10° NW 22:26:02 59° NNW 22:26:02 59° NNW
Meteor 1-11 Rocket 3.9 22:23:27 10° NNW 22:29:24 72° W 22:30:24 60° SSW
ARIANE 5 R/B 4.1 22:29:54 27° WSW 22:30:17 27° W 22:34:00 10° NW
ATLAS 5 CENTAUR R/B 4.3 22:27:11 10° WNW 22:31:18 19° WSW 22:33:19 16° SW
Cosmos 1707 Rocket 4.4 22:32:59 44° NNE 22:32:59 44° NNE 22:36:09 10° NNE
Cosmos 1340 Rocket 3.9 22:28:12 10° N 22:31:04 41° NNE 22:31:04 41° NNE
DNEPR-1 R/B 4.5 22:34:46 52° ENE 22:34:46 52° ENE 22:38:56 10° NE
SL-8 Rocket 4.4 22:35:02 10° N 22:41:09 48° ENE 22:41:32 48° E
Cosmos 1536 4.0 22:43:22 10° NNW 22:46:16 40° NW 22:46:16 40° NW
Cosmos 1898 Rocket 3.5 22:47:28 78° WNW 22:47:28 78° WNW 22:52:48 10° NNE
Cosmos 1833 Rocket 4.0 22:43:22 10° NW 22:48:04 28° WSW 22:48:46 27° WSW
Cosmos 923 Rocket 4.2 22:45:34 10° NNW 22:50:32 62° W 22:50:32 62° W
Cosmos 1743 4.3 22:47:16 10° N 22:49:32 34° N 22:49:32 34° N
Cosmos 2154 Rocket 4.4 22:47:16 10° NNW 22:53:24 54° W 22:54:30 48° SW
USA 307 4.3 22:49:10 10° NW 22:51:43 35° WNW 22:51:43 35° WNW
SJ 16-02 4.0 22:56:25 10° W 22:59:14 16° WNW 23:02:04 10° NNW
Cosmos 2297 3.9 23:04:37 63° W 23:05:04 66° WNW 23:10:45 10° NNE
Cosmos 1733 Rocket 4.1 23:02:01 10° N 23:04:54 42° N 23:04:54 42° N
Cosmos 962 Rocket 4.4 23:01:12 10° N 23:07:19 73° W 23:07:34 72° WSW
NOSS 3-4 (A) 4.2 23:03:49 10° NW 23:10:46 53° WSW 23:11:32 51° SW
NOSS 3-4 (C) 4.2 23:03:55 10° NW 23:10:53 53° WSW 23:11:38 51° SW
Cosmos 1959 Rocket 4.5 23:05:08 10° N 23:11:16 67° ENE 23:11:16 67° ENE
Terra 3.5 23:11:54 25° W 23:11:54 25° W 23:15:30 10° NW
Meteor 1-18 Rocket 4.3 23:16:27 70° NNE 23:16:27 70° NNE 23:21:27 10° NNE
ATLAS 2AS CENTAUR R/B 2.6 23:17:10 10° NW 23:24:22 70° WSW 23:24:29 70° SW
Cosmos 2082 Rocket 3.7 23:23:37 10° NW 23:27:41 25° W 23:27:41 25° W
Cosmos 2181 Rocket 4.0 23:29:26 70° W 23:29:31 70° W 23:35:39 10° N
Cosmos 44 4.2 23:26:19 10° NW 23:30:23 49° WNW 23:30:23 49° WNW
Cosmos 2366 rocket 4.0 23:34:40 10° NNW 23:40:37 72° WNW 23:40:37 72° WNW
Cosmos 1821 Rocket 4.4 23:35:12 10° N 23:41:25 51° ENE 23:41:25 51° ENE
Lacrosse 5 4.5 23:54:51 10° ENE 23:54:51 10° ENE 23:54:56 10° ENE
